Stations météo

Publicité
Gourdon, France (7535): Température de l'air & dewpoint: 20.05.2019 17:00:00 - 26.05.2019 17:00:00 (CEST)Gourdon, France (7535): Température de l'air 5cm: 20.05.2019 17:00:00 - 26.05.2019 17:00:00 (CEST)Gourdon, France (7535): Température de l'air -20cm & Température de l'air -100cm: 20.05.2019 17:00:00 - 26.05.2019 17:00:00 (CEST)Gourdon, France (7535): Vitesse du vent & gusts: 20.05.2019 17:00:00 - 26.05.2019 17:00:00 (CEST)Gourdon, France (7535): Direction du vent: 20.05.2019 17:00:00 - 26.05.2019 17:00:00 (CEST)Gourdon, France (7535): reduced air pressure: 20.05.2019 17:00:00 - 26.05.2019 17:00:00 (CEST)Gourdon, France (7535): visibility: 20.05.2019 17:00:00 - 26.05.2019 17:00:00 (CEST)Gourdon, France (7535): Ensoleillement: 20.05.2019 17:00:00 - 26.05.2019 17:00:00 (CEST)Gourdon, France (7535): Quantités de précipitations: 20.05.2019 17:00:00 - 26.05.2019 17:00:00 (CEST)
Date & Time tt [°C] td [°C] tt 5cm [°C] tt -20cm [°C] tt -100cm [°C] ff [km/h] ff [knt] fx [km/h] fx [knt] dd ppp [hPa] vv [km] sd [min] rr [mm]
26.05.2019 17:00:00 19,9 11,1 21,3 18,0 15,7 10 5 25 14 NW 1017,8 20 7 0,0
26.05.2019 16:00:00 20,6 13,1 24,3 17,8 15,6 9 5 23 13 WNW 1018,3 20 20 0,0
26.05.2019 15:00:00 19,4 12,9 24,3 17,6 15,6 9 5 27 14 NW 1018,8 20 25 0,0
26.05.2019 14:00:00 18,8 13,0 22,9 17,5 15,6 13 7 27 15 NW 1019,6 20 25 0,0
26.05.2019 13:00:00 16,6 12,9 19,7 17,5 15,6 9 5 22 12 WNW 1020,2 20 0 0,0
26.05.2019 12:00:00 15,3 12,4 16,3 17,5 15,6 10 5 21 11 W 1020,8 18 0 0,0
26.05.2019 11:00:00 13,8 12,0 15,6 17,5 15,6 5 3 19 11 WNW 1021,0 14 0 0,0
26.05.2019 10:00:00 13,3 11,9 14,5 17,6 15,6 6 4 18 10 WNW 1021,0 15 0 0,0
26.05.2019 09:00:00 12,9 11,6 14,2 17,7 15,6 5 3 16 9 W 1020,7 14 0 0,0
26.05.2019 08:00:00 12,8 11,7 12,6 17,8 15,6 4 2 13 7 W 1020,7 16 0 0,0
26.05.2019 07:00:00 12,2 11,1 12,3 17,9 15,5 6 4 13 7 WNW 1020,7 16 0 0,0
26.05.2019 06:00:00 12,2 10,9 12,4 18,0 15,5 6 3 13 7 W 1020,5 19 0 0,0
26.05.2019 05:00:00 12,2 10,8 12,4 18,2 15,5 5 3 16 8 WNW 1020,7 20 0 0,0
26.05.2019 04:00:00 12,4 10,6 12,5 18,3 15,5 6 3 14 8 W 1020,7 20 0 0,0
26.05.2019 03:00:00 12,9 11,0 13,0 18,4 15,5 4 2 18 10 W 1021,1 20 0 0,0
26.05.2019 02:00:00 13,4 11,1 13,2 18,6 15,5 8 4 19 10 WNW 1021,1 20 0 0,0
26.05.2019 01:00:00 14,1 11,4 13,7 18,7 15,5 7 4 21 11 WNW 1021,5 20 0 0,0
26.05.2019 00:00:00 14,3 11,4 13,3 18,9 15,5 8 4 14 8 WNW 1021,5 20 0 0,0
25.05.2019 23:00:00 14,4 11,2 13,2 19,0 15,5 4 2 17 9 W 1021,4 20 0 0,0
25.05.2019 22:00:00 15,1 10,9 13,5 19,1 15,5 6 3 23 12 W 1020,6 20 0 0,0
25.05.2019 21:00:00 16,5 10,8 14,9 19,1 15,5 7 4 25 13 W 1019,8 20 35 0,0
25.05.2019 20:00:00 18,8 11,1 18,1 19,0 15,4 10 5 30 16 W 1019,2 20 57 0,0
25.05.2019 19:00:00 19,9 11,1 20,3 18,9 15,5 14 7 31 17 W 1018,8 20 55 0,0
25.05.2019 18:00:00 20,7 9,9 25,1 18,6 15,5 13 7 34 18 WNW 1018,5 20 56 0,0
25.05.2019 17:00:00 22,3 10,8 28,2 18,3 15,5 11 6 31 17 WNW 1018,0 20 56 0,0
25.05.2019 16:00:00 21,5 12,1 22,9 18,1 15,4 13 7 27 14 WNW 1018,2 20 15 0,0
25.05.2019 15:00:00 19,5 11,3 22,9 17,8 15,5 10 6 30 16 NW 1018,7 20 22 0,0
25.05.2019 14:00:00 20,2 10,6 23,1 17,5 15,4 8 5 28 15 NW 1018,7 18 27 0,0
25.05.2019 13:00:00 20,1 12,8 26,1 17,2 15,4 12 7 26 14 NW 1018,9 20 50 0,0
25.05.2019 12:00:00 18,9 13,7 27,1 17,1 15,4 8 4 16 9 NW 1019,3 20 43 0,0
25.05.2019 11:00:00 17,2 14,5 19,2 17,1 15,4 8 4 15 8 NNW 1019,5 20 47 0,0
25.05.2019 10:00:00 15,2 14,2 17,6 17,1 15,4 3 2 11 6 NW 1019,5 16 14 0,0
25.05.2019 09:00:00 13,7 13,5 15,0 17,1 15,4 4 2 11 6 NNW 1019,2 6 4 0,0
25.05.2019 08:00:00 13,2 13,0 13,9 17,2 15,4 5 3 10 6 N 1018,8 3,4 0 0,0
25.05.2019 07:00:00 13,2 13,0 13,6 17,3 15,4 4 2 11 6 NNW 1018,4 0,2 0 0,0
25.05.2019 06:00:00 13,3 13,1 13,7 17,4 15,4 4 2 13 7 NW 1018,1 1,9 0 0,0
25.05.2019 05:00:00 13,3 13,1 13,5 17,4 15,4 3 1 6 3 WNW 1017,8 5 0 0,0
25.05.2019 04:00:00 13,1 12,9 13,1 17,5 15,4 0 0 4 2 N 1018,0 7 0 0,0
25.05.2019 03:00:00 12,8 12,6 12,8 17,7 15,4 3 1 4 2 S 1018,2 5 0 0,0
25.05.2019 02:00:00 12,7 12,4 12,7 17,8 15,3 3 2 8 4 SSE 1018,5 3,7 0 0,0
25.05.2019 01:00:00 12,9 12,6 13,0 17,9 15,3 3 2 6 3 WSW 1018,7 8 0 0,0
25.05.2019 00:00:00 12,9 12,6 12,8 18,0 15,3 0 0 6 3 N 1018,8 8 0 0,0
24.05.2019 23:00:00 12,9 12,6 12,8 18,1 15,3 4 2 7 4 SSE 1018,5 4,5 0 1,0
24.05.2019 22:00:00 13,2 12,9 13,2 18,2 15,3 2 1 6 3 WSW 1018,1 5 0 0,8
24.05.2019 21:00:00 13,2 12,7 13,4 18,3 15,3 4 2 16 8 NW 1017,4 15 0 0,4
24.05.2019 20:00:00 13,7 12,9 13,9 18,2 15,3 5 3 13 7 NNW 1017,2 12 0 0,6
24.05.2019 19:00:00 13,8 12,7 13,8 18,2 15,3 6 3 35 19 E 1016,7 10 0 1,2
24.05.2019 18:00:00 19,0 13,6 21,1 18,0 15,3 8 4 24 13 WNW 1016,1 20 0 0,0
24.05.2019 17:00:00 19,0 12,7 21,6 17,9 15,3 7 4 25 14 W 1015,9 20 0 0,0
24.05.2019 16:00:00 19,3 13,0 23,3 17,7 15,2 8 5 22 12 WNW 1016,0 20 8 0,0
24.05.2019 15:00:00 18,7 13,3 23,4 17,6 15,2 8 5 21 11 W 1016,6 20 0 0,0
24.05.2019 14:00:00 18,2 13,1 23,7 17,5 15,2 7 4 19 11 WNW 1017,1 20 6 0,0
24.05.2019 13:00:00 17,3 13,0 19,6 17,5 15,2 7 4 22 12 W 1017,4 19 3 0,0
24.05.2019 12:00:00 15,9 13,0 17,1 17,5 15,2 7 4 20 11 W 1017,6 20 0 0,0
24.05.2019 11:00:00 15,0 12,9 15,8 17,6 15,2 8 4 18 10 WNW 1017,8 19 0 0,0
24.05.2019 10:00:00 14,6 12,8 15,5 17,7 15,2 5 3 17 9 W 1017,9 15 0 0,0
24.05.2019 09:00:00 14,5 13,0 15,1 17,7 15,1 5 3 16 9 W 1017,6 15 0 0,0
24.05.2019 08:00:00 14,2 12,9 13,8 17,9 15,1 3 2 10 5 W 1017,3 18 0 0,0
24.05.2019 07:00:00 13,9 12,6 13,2 18,0 15,1 2 1 11 6 W 1016,9 18 5 0,0
24.05.2019 06:00:00 13,9 12,3 13,2 18,1 15,1 4 2 12 7 W 1016,9 20 0 0,0
24.05.2019 05:00:00 14,4 12,1 13,3 18,2 15,1 4 2 15 8 W 1016,8 20 0 0,0
24.05.2019 04:00:00 15,1 11,3 13,6 18,3 15,1 4 2 11 6 W 1016,7 20 0 0,0
24.05.2019 03:00:00 15,5 11,3 13,6 18,4 15,0 4 2 9 5 WNW 1016,7 20 0 0,0
24.05.2019 02:00:00 15,9 11,7 14,0 18,6 15,0 3 2 10 6 W 1017,0 20 0 0,0
24.05.2019 01:00:00 17,2 10,8 14,7 18,7 15,0 5 3 13 7 NW 1017,0 20 0 0,0
24.05.2019 00:00:00 17,4 10,7 14,6 18,8 15,0 3 1 10 5 W 1016,7 20 0 0,0
23.05.2019 23:00:00 18,2 10,1 14,8 18,9 15,0 3 2 13 7 W 1016,7 20 0 0,0
23.05.2019 22:00:00 19,3 10,8 15,8 18,9 15,0 4 2 14 8 W 1016,3 16 0 0,0
23.05.2019 21:00:00 20,7 10,8 18,1 18,9 15,0 5 3 12 6 WNW 1015,3 20 0 0,0
23.05.2019 20:00:00 21,8 10,6 20,8 18,8 15,0 5 3 14 8 WNW 1015,1 20 0 0,0
23.05.2019 19:00:00 23,2 8,8 23,1 18,6 15,0 4 2 14 8 NW 1015,0 20 26 0,0
23.05.2019 18:00:00 25,0 9,7 26,6 18,2 15,0 6 3 19 10 NW 1014,9 20 49 0,0
23.05.2019 17:00:00 24,1 10,7 27,6 17,9 14,9 8 4 24 13 NNW 1015,0 20 51 0,0
23.05.2019 16:00:00 24,6 10,8 30,5 17,5 15,0 4 2 16 9 NNW 1015,2 20 54 0,0
23.05.2019 15:00:00 24,9 10,7 30,0 17,1 14,9 7 4 21 11 WNW 1015,6 20 54 0,0
23.05.2019 14:00:00 23,7 9,7 31,5 16,7 14,9 3 2 14 8 NW 1016,0 20 46 0,0
23.05.2019 13:00:00 23,1 9,5 34,8 16,4 14,9 4 2 15 8 N 1016,5 20 60 0,0
23.05.2019 12:00:00 22,6 11,6 34,3 16,3 14,9 4 2 11 6 NNW 1016,9 20 60 0,0
23.05.2019 11:00:00 20,2 13,2 30,9 16,2 14,8 5 3 9 5 NNW 1017,3 20 60 0,0
23.05.2019 10:00:00 18,0 12,0 21,4 16,2 14,8 4 2 7 4 N 1017,8 20 60 0,0
23.05.2019 09:00:00 15,3 10,7 16,7 16,4 14,8 0 0 4 2 N 1017,9 20 58 0,0
23.05.2019 08:00:00 13,3 8,8 9,5 16,6 14,8 0 0 12 6 N 1017,9 20 60 0,0
23.05.2019 07:00:00 11,8 7,1 6,0 16,8 14,8 8 5 16 9 ESE 1017,7 20 16 0,0
23.05.2019 06:00:00 9,9 7,0 6,1 17,0 14,8 3 2 9 5 ENE 1018,0 20 0 0,0
23.05.2019 05:00:00 10,2 8,5 6,3 17,1 14,8 4 2 8 4 NNE 1018,0 20 0 0,0
23.05.2019 04:00:00 12,2 8,5 7,3 17,3 14,8 4 2 10 6 N 1018,0 20 0 0,0
23.05.2019 03:00:00 12,4 8,7 7,6 17,5 14,7 6 3 11 6 E 1018,0 20 0 0,0
23.05.2019 02:00:00 11,7 8,7 8,0 17,8 14,7 4 2 8 4 E 1018,2 20 0 0,0
23.05.2019 01:00:00 11,8 9,2 9,1 17,9 14,8 2 1 11 6 SE 1018,2 20 0 0,0
23.05.2019 00:00:00 12,4 9,4 10,1 18,1 14,8 6 3 10 5 SSE 1018,4 20 0 0,0
22.05.2019 23:00:00 13,9 10,1 10,8 18,2 14,7 6 4 9 5 SE 1018,5 20 0 0,0
22.05.2019 22:00:00 18,1 10,2 11,5 18,2 14,7 0 0 7 4 N 1017,7 20 0 0,0
22.05.2019 21:00:00 20,3 9,5 15,5 18,2 14,7 5 3 13 7 NNW 1017,3 20 46 0,0
22.05.2019 20:00:00 22,6 9,0 20,1 18,0 14,7 7 4 16 9 NW 1017,0 20 60 0,0
22.05.2019 19:00:00 22,7 9,1 22,3 17,8 14,7 8 5 22 12 N 1017,0 20 60 0,0
22.05.2019 18:00:00 23,6 8,8 27,5 17,4 14,7 8 4 26 14 NW 1017,2 20 58 0,0
22.05.2019 17:00:00 23,5 8,7 29,8 17,0 14,7 5 3 21 11 N 1017,4 20 60 0,0
22.05.2019 16:00:00 23,2 9,9 31,3 16,5 14,7 7 4 21 11 N 1017,7 20 60 0,0
22.05.2019 15:00:00 21,8 9,7 29,6 16,0 14,7 10 5 26 14 NNW 1018,2 19 53 0,0
22.05.2019 14:00:00 21,4 9,6 32,1 15,6 14,7 8 5 21 12 NE 1018,6 19 58 0,0
22.05.2019 13:00:00 20,7 11,1 32,0 15,4 14,7 8 4 19 10 NNE 1019,0 20 60 0,0
22.05.2019 12:00:00 19,1 9,8 31,7 15,1 14,7 8 4 13 7 NNW 1019,4 20 60 0,0
22.05.2019 11:00:00 17,5 12,2 27,8 15,1 14,7 6 4 14 7 N 1019,5 20 60 0,0
22.05.2019 10:00:00 14,9 11,5 20,8 15,1 14,7 4 2 7 4 N 1019,9 20 60 0,0
22.05.2019 09:00:00 11,8 11,2 13,3 15,2 14,7 2 1 6 3 N 1020,3 20 60 0,0
22.05.2019 08:00:00 10,1 10,1 7,1 15,4 14,7 0 0 4 2 N 1020,2 6 60 0,0
22.05.2019 07:00:00 7,1 7,0 6,5 15,5 14,7 0 0 4 2 N 1020,1 0,3 11 0,0
22.05.2019 06:00:00 8,6 8,5 5,1 15,7 14,7 3 2 5 3 N 1019,8 0,1 0 0,0
22.05.2019 05:00:00 7,8 7,5 5,4 15,9 14,7 0 0 5 3 N 1019,7 5 0 0,0
22.05.2019 04:00:00 8,3 8,0 6,6 16,0 14,6 3 2 8 5 SE 1019,7 7 0 0,0
22.05.2019 03:00:00 8,6 8,3 6,8 16,2 14,7 5 3 8 5 ESE 1019,6 9 0 0,0
22.05.2019 02:00:00 9,0 8,5 7,4 16,4 14,7 5 3 8 5 SE 1019,7 12 0 0,0
22.05.2019 01:00:00 9,6 9,0 7,9 16,5 14,6 4 2 7 4 SSE 1019,7 13 0 0,0
22.05.2019 00:00:00 10,7 9,9 8,4 16,6 14,7 4 2 8 4 SSE 1019,6 18 0 0,0
21.05.2019 23:00:00 12,6 10,7 8,8 16,7 14,6 4 2 8 4 S 1019,4 20 0 0,0
21.05.2019 22:00:00 14,1 10,7 10,8 16,7 14,6 3 2 7 4 WSW 1019,1 20 0 0,0
21.05.2019 21:00:00 16,0 10,7 14,8 16,7 14,6 3 1 8 4 W 1018,3 20 42 0,0
21.05.2019 20:00:00 18,1 10,5 16,0 16,6 14,7 3 1 7 4 NNW 1017,4 20 35 0,0
21.05.2019 19:00:00 16,2 10,1 16,0 16,5 14,7 6 3 24 13 NNE 1017,5 20 0 0,0
21.05.2019 18:00:00 16,9 12,4 17,5 16,2 14,6 5 3 21 11 NE 1017,3 20 0 0,0
21.05.2019 17:00:00 17,3 13,6 17,6 15,9 14,7 0 0 22 12 N 1017,3 20 8 0,6
21.05.2019 16:00:00 18,3 11,4 20,7 15,6 14,7 10 5 23 12 NW 1017,5 20 14 0,0
21.05.2019 15:00:00 19,3 11,8 24,3 15,3 14,7 8 5 21 12 NNW 1017,3 20 47 0,0
21.05.2019 14:00:00 17,2 12,5 24,7 15,1 14,7 10 5 25 13 NNW 1017,8 20 34 0,0
21.05.2019 13:00:00 14,9 12,6 18,1 15,0 14,6 7 4 14 8 NW 1018,5 14 13 0,0
21.05.2019 12:00:00 12,0 11,5 16,6 14,9 14,7 3 2 9 5 NW 1018,9 7 0 0,0
21.05.2019 11:00:00 11,2 11,2 14,8 14,9 14,7 4 2 9 5 WNW 1018,8 2,5 0 0,0
21.05.2019 10:00:00 10,1 10,1 12,6 14,9 14,6 3 2 9 5 NNW 1018,6 0,2 0 0,0
21.05.2019 09:00:00 9,4 9,4 10,3 15,0 14,6 2 1 6 4 W 1018,2 0,1 0 0,0
21.05.2019 08:00:00 8,9 8,9 8,2 15,2 14,7 0 0 5 3 N 1017,7 0,2 0 0,0
21.05.2019 07:00:00 7,4 7,3 6,1 15,3 14,6 3 2 8 5 SSE 1017,4 0,1 0 0,0
21.05.2019 06:00:00 6,8 6,7 5,2 15,5 14,6 2 1 6 4 SSE 1017,1 0,1 0 0,0
21.05.2019 05:00:00 6,8 6,5 5,4 15,6 14,6 5 3 8 4 SE 1016,9 3,0 0 0,0
21.05.2019 04:00:00 7,1 6,8 5,6 15,8 14,6 3 2 6 3 SSE 1016,9 3,6 0 0,0
21.05.2019 03:00:00 7,8 7,4 6,5 16,0 14,6 5 3 7 4 SE 1016,7 6 0 0,0
21.05.2019 02:00:00 8,5 8,1 6,1 16,1 14,6 4 2 6 3 SSE 1016,8 6 0 0,0
21.05.2019 01:00:00 9,7 9,1 6,8 16,3 14,6 0 0 6 3 N 1016,9 17 0 0,0
21.05.2019 00:00:00 10,8 9,7 7,4 16,4 14,6 2 1 7 4 WSW 1016,7 20 0 0,0
20.05.2019 23:00:00 11,9 9,5 9,5 16,4 14,6 0 0 8 4 N 1016,3 20 0 0,0
20.05.2019 22:00:00 12,5 9,3 10,6 16,5 14,6 3 2 12 6 WNW 1015,6 20 0 0,0
20.05.2019 21:00:00 13,5 9,7 12,1 16,5 14,6 6 3 15 8 NW 1014,8 20 0 0,0
20.05.2019 20:00:00 16,2 10,7 17,2 16,4 14,6 4 2 17 9 NW 1014,2 20 45 0,0
20.05.2019 19:00:00 16,4 10,5 16,9 16,4 14,6 8 5 19 10 NNW 1014,0 20 24 0,0
20.05.2019 18:00:00 14,6 10,8 15,1 16,2 14,6 3 1 24 13 SSW 1013,9 20 0 0,0
20.05.2019 17:00:00 15,5 9,4 17,0 16,1 14,6 10 5 21 12 NW 1013,7 20 0 0,0

tt = Température de l'air
td = dewpoint
tt 5cm = Température de l'air 5cm
tt -20cm = Température de l'air -20cm
tt -100cm = Température de l'air -100cm
ff = Vitesse du vent
fx = gusts
dd = Direction du vent
ppp = reduced air pressure
vv = visibility
sd = Ensoleillement
rr = Quantités de précipitations

stations d'obs. à proximité